Location: Risskov
(56.1972°N, 10.2480°E)
Time: 12:56:39
(UTC+00:00)

Terra - Pass Details

Date: 05 July 2020
Orbit: 701 x 703 km, 98.2° (Epoch: 07 August)

Event Time Altitude Azimuth Distance (km) Brightness Sun altitude
Exits shadow 22:10:28 - 205° (SSW) 2,673 4.4 -9.6°
Reaches altitude 10° 22:11:56 10° 214° (SSW) 2,172 4.0 -9.7°
Maximum altitude 22:15:50 25° 269° (W) 1,420 3.6 -9.8°
Drops below altitude 10° 22:19:46 10° 324° (NW) 2,185 5.6 -10.0°
Sets 22:22:25 0° 338° (NNW) 3,109 7.3 -10.1°
